This demonstration page uses our WeatherBlox Daily Observations layout. Learn more.

39.08367, -84.50855

Hourly Observations for July 6, 2019

Temp ( °F °C ) Dew Point ( °F °C ) Humidity (%) Winds ( mph kmh ) Pressure ( in mb ) Visibility ( mi km ) Precip ( " mm )
12:53 am 00:53 Clear 74 23.3 72 22.2 94 94 Calm 30 1016 8 12.874752 0 0
1:53 am 01:53 Clear with Mist and Fog 72 22.2 71 21.7 97 97 S 3 6 29.97 1015 5 8.04672 0 0
2:53 am 02:53 Clear with Mist and Fog 72 22.2 72 22.2 100 100 Calm 29.97 1015 4 6.437376 0 0
3:21 am 03:21 Clear with Mist and Fog 72 22.2 72 22.2 100 100 SW 3 6 29.97 1015 2 3.218688 0 0
3:38 am 03:38 Clear with Mist and Fog 72 22.2 72 22.2 100 100 SSW 3 6 29.97 1015 4 6.437376 0 0
3:51 am 03:51 Clear with Mist and Fog 73 23 72 22 94 94 Calm 29.97 1015 2.5 4.02336 0 0
3:53 am 03:53 Clear with Mist and Fog 73 22.8 72 22.2 96 96 Calm 29.97 1015 3 4.828032 0 0
4:53 am 04:53 Mostly Clear with Mist and Fog 72 22.2 71 21.7 97 97 Calm 29.97 1015 1.75 2.816352 0 0
5:29 am 05:29 Mostly Clear with Mist and Fog 71 21.7 71 21.7 100 100 Calm 30 1016 3 4.828032 0 0
5:48 am 05:48 Clear with Mist and Fog 72 22 72 22 100 100 Calm 30 1016 1.75 2.816352 0 0
5:50 am 05:50 Mostly Cloudy with Mist and Fog 72 22 72 22 100 100 Calm 30 1016 0.75 1.207008 0 0
5:53 am 05:53 Mostly Cloudy with Fog 71 21.7 70 21.1 96 96 Calm 30 1016 0.5 0.804672 0 0
6:01 am 06:01 Mostly Clear with Mist and Fog 71 21.7 71 21.7 100 100 Calm 30 1016 1.5 2.414016 0 0
6:03 am 06:03 Mostly Clear with Mist and Fog 71 21.7 71 21.7 100 100 Calm 30 1016 3 4.828032 0 0
6:09 am 06:09 Mostly Clear with Mist and Fog 72 22.2 71 21.7 97 97 Calm 30 1016 1.75 2.816352 0 0
6:27 am 06:27 Sunny with Mist and Fog 71 21.7 71 21.7 100 100 Calm 30 1016 2.5 4.02336 0 0
6:33 am 06:33 Sunny with Mist and Fog 72 22.2 71 21.7 97 97 Calm 30 1016 0.75 1.207008 0 0
6:42 am 06:42 Mostly Cloudy with Fog 71 21.7 71 21.7 100 100 Calm 30 1016 0 0 0 0
6:53 am 06:53 Sunny with Patchy Fog 71 21.7 71 21.7 100 100 Calm 30 1016 7 11.265408 0 0
7:53 am 07:53 Sunny 76 24.4 74 23.3 94 94 SW 3 6 30 1016 10 16.09344 0 0
8:53 am 08:53 Partly Cloudy 78 25.6 74 23.3 87 87 S 3 6 30 1016 10 16.09344 0 0
9:53 am 09:53 Partly Cloudy 83 28.3 74 23.3 74 74 Calm 30 1016 10 16.09344 0.001 0.001
10:53 am 10:53 Mostly Sunny 84 28.9 75 23.9 74 74 VRB 5 7 29.97 1015 10 16.09344 0 0
11:53 am 11:53 Partly Cloudy 86 30 75 23.9 70 70 VRB 6 9 29.97 1015 10 16.09344 0 0
12:53 pm 12:53 Mostly Cloudy 87 30.6 75 23.9 67 67 SSW 10 17 29.97 1015 10 16.09344 0 0
1:53 pm 13:53 Mostly Sunny 87 30.6 74 23.3 65 65 SW 10 17 29.94 1014 10 16.09344 0 0
2:53 pm 14:53 Mostly Cloudy 87 30.6 74 23.3 65 65 SW 7 11 29.91 1013 10 16.09344 0 0
3:53 pm 15:53 Mostly Cloudy 87 30.6 74 23.3 65 65 W 10 17 29.91 1013 10 16.09344 0 0
4:53 pm 16:53 Mostly Cloudy 87 30.6 73 22.8 63 63 W 13 20 29.91 1013 10 16.09344 0 0
5:53 pm 17:53 Mostly Sunny 87 30.6 72 22.2 61 61 SW 12 19 29.88 1012 10 16.09344 0 0
6:53 pm 18:53 Mostly Sunny 87 30.6 72 22.2 61 61 W 12 19 29.88 1012 10 16.09344 0 0
7:53 pm 19:53 Mostly Sunny 84 28.9 72 22.2 67 67 WSW 7 11 29.88 1012 10 16.09344 0 0
8:53 pm 20:53 Mostly Sunny 82 27.8 71 21.7 69 69 WSW 6 9 29.91 1013 10 16.09344 0 0
9:53 pm 21:53 Mostly Clear 80 26.7 72 22.2 76 76 ENE 6 9 29.91 1013 10 16.09344 0 0
10:53 pm 22:53 Clear 77 25 73 22.8 88 88 Calm 29.91 1013 10 16.09344 0.001 0.001
11:53 pm 23:53 Partly Cloudy 78 25.6 71 21.7 79 79 NE 3 6 29.91 1013 10 16.09344 0 0

Powered by AerisWeather